This is the latest recevied weather packets stored in our database for station/object F8BMG-Wx. If no packets are shown the sender has not sent any weather packets the latest 10 day(s).
| Time | Temp. | Humidity | Pressure | Rain* | Wind** | Luminosity | Snow |
|---|---|---|---|---|---|---|---|
| 1777841131 | 15.56° C | 99% | 1012.5 hPa | 0 mm | - | - | - |
| 1777840828 | 15° C | 99% | 1012.5 hPa | 0 mm | - | - | - |
| 1777840523 | 15° C | 99% | 1012.4 hPa | 0.51 mm | - | - | - |
| 1777840219 | 15.56° C | 99% | 1012.4 hPa | 0.51 mm | - | - | - |
| 1777839922 | 15° C | 99% | 1012.6 hPa | 0.25 mm | - | - | - |
| 1777839610 | 15° C | 99% | 1012.7 hPa | 0.25 mm | - | - | - |
| 1777839306 | 15° C | 99% | 1012.7 hPa | 0.25 mm | - | - | - |
| 1777839003 | 15° C | 99% | 1012.6 hPa | 0.25 mm | - | - | - |
| 1777838699 | 15° C | 99% | 1012.6 hPa | 0.25 mm | - | - | - |
| 1777838396 | 15° C | 99% | 1012.6 hPa | 0.25 mm | - | - | - |
| 1777838098 | 15° C | 99% | 1012.6 hPa | 0.25 mm | - | - | - |
| 1777837786 | 15° C | 99% | 1012.4 hPa | 0.25 mm | - | - | - |
| 1777837483 | 15° C | 99% | 1012.4 hPa | 0.25 mm | - | - | - |
| 1777837179 | 15° C | 99% | 1012.3 hPa | 0.25 mm | - | - | - |
| 1777836875 | 15° C | 99% | 1012.2 hPa | 2.79 mm | - | - | - |
| 1777836572 | 15° C | 99% | 1012.1 hPa | 2.79 mm | - | - | - |
| 1777836274 | 15° C | 99% | 1012.1 hPa | 2.79 mm | - | - | - |
| 1777835962 | 15° C | 99% | 1011.9 hPa | 2.79 mm | - | - | - |
| 1777835658 | 15° C | 99% | 1011.7 hPa | 2.79 mm | - | - | - |
| 1777835355 | 15° C | 99% | 1011.9 hPa | 2.03 mm | - | - | - |
| 1777835051 | 15° C | 99% | 1012.2 hPa | 1.78 mm | - | - | - |
| 1777834748 | 15° C | 99% | 1012.3 hPa | 1.52 mm | - | - | - |
| 1777834450 | 15° C | 99% | 1012.4 hPa | 1.02 mm | - | - | - |
| 1777834139 | 15° C | 99% | 1012.4 hPa | 0.76 mm | - | - | - |
| 1777833835 | 15.56° C | 99% | 1012.4 hPa | 0.51 mm | - | - | - |
* Rain latest hour (hover to see other rain measurements)
** Current wind speed in m/s (hover to see current wind gust speed)